Location: Iberg
(51.4167°N, 10.3500°E)
Time: 15:53:50
(UTC+00:00)

Daily predictions for brighter satellites

Satellite Brightness Start Highest point End
(mag) Time Altitude Azimuth Time Altitude Azimuth Time Altitude Azimuth
ATLAS 3B R/B 3.6 16:13:42 10° NW 16:20:29 58° SW 16:27:30 10° SSE
PSLV R/B 4.2 16:21:15 10° S 16:24:56 67° WSW 16:28:42 10° NNW
CZ-4C R/B 3.0 16:22:32 10° NNE 16:25:38 50° E 16:28:43 10° S
Meteor 2-10 Rocket 4.2 16:20:41 10° N 16:25:47 35° ENE 16:30:39 10° SE
Cosmos 2344 4.4 16:19:29 10° NW 16:27:21 45° NNE 16:37:39 10° E
CREW DRAGON DEMO-1 DEB 2.6 16:27:25 10° W 16:30:20 89° NNE 16:33:14 10° E
CZ-4B R/B 3.3 16:25:52 10° SSE 16:31:25 77° ENE 16:37:06 10° NNW
SL-24 R/B 4.2 16:29:00 10° SSE 16:33:21 74° ENE 16:38:07 10° NNW
Cosmos 2297 Rocket 3.8 16:30:50 10° W 16:35:38 27° NW 16:40:26 10° NNE
Cosmos 1603 4.4 16:30:03 10° NW 16:35:42 63° WSW 16:41:21 10° SSE
USA-17 4.3 16:34:20 10° SW 16:37:53 85° SE 16:40:58 10° NE
Cosmos 1538 Rocket 4.1 16:33:15 10° NNW 16:38:20 53° ENE 16:43:24 10° SE
NOAA 12 4.2 16:34:00 10° SSE 16:39:15 85° WSW 16:44:32 10° NNW
Cosmos 2279 Rocket 4.0 16:34:56 10° N 16:41:11 65° ENE 16:47:25 10° SSE
Cosmos 1536 Rocket 4.0 16:37:00 10° SSW 16:41:21 65° WNW 16:45:48 10° N
NOSS 7 (H) 4.1 16:38:33 10° SW 16:41:46 83° NW 16:44:39 10° NE
COSMO-SKYMED 1 3.7 16:38:45 10° NE 16:42:21 25° E 16:45:55 10° SSE
ATLAS 5 CENTAUR R/B 1.5 16:38:51 10° SW 16:42:53 73° SE 16:47:33 10° NE
Cosmos 968 Rocket 4.2 16:39:52 10° SW 16:44:52 54° WNW 16:49:54 10° NNE
H-2A R/B 2.9 16:41:57 10° S 16:45:58 66° WSW 16:50:11 10° NNW
CZ-2D R/B 3.9 16:43:22 10° SE 16:46:51 34° ENE 16:50:22 10° N
Envisat 4.5 16:42:54 10° SSW 16:47:43 42° W 16:52:33 10° NNW
Lacrosse 5 1.8 16:42:52 10° WNW 16:47:57 79° NNE 16:53:01 10° ESE
ADEOS Rocket 4.0 16:42:33 10° N 16:48:25 46° WNW 16:53:47 10° SW
Aureole 3 4.2 16:46:20 10° NNE 16:49:06 20° ENE 16:51:34 10° ESE
Cosmos 1354 Rocket 4.1 16:46:50 10° SSW 16:52:11 90° NNW 16:57:34 10° NNE
FengYun 1-2 T 4.3 16:48:49 10° SSE 16:54:24 87° WSW 17:00:04 10° NNW
NOSS 3-1 (C) 4.2 16:48:52 10° NW 16:55:34 48° NNE 17:03:28 10° ESE
Cosmos 1634 Rocket 4.4 16:49:58 10° NNW 16:56:11 70° W 17:02:25 10° S
SL-14 R/B 3.4 16:53:26 10° SSW 16:57:18 80° W 17:01:16 10° N
ISS -1.6 16:55:45 10° S 16:57:45 15° SE 16:59:25 11° ESE
Okean-O 3.3 16:57:12 10° SE 17:01:08 32° ENE 17:05:04 10° N
Okean O Rocket 2.0 16:57:45 10° S 17:02:11 69° WSW 17:06:37 10° NNW
RESURS DK-1 3.3 17:01:51 10° SW 17:05:51 46° NW 17:09:52 10° NNE
Cosmos 2263 Rocket 2.4 17:00:34 10° SW 17:06:15 75° WNW 17:11:57 10° NNE
Cosmos 1455 2.7 17:04:45 10° N 17:08:17 35° ENE 17:11:49 10° SE
Helios 1A Rocket 3.8 17:05:41 10° ESE 17:09:14 28° ENE 17:12:48 10° N
Meteor 2-5 Rocket 3.9 17:03:54 10° SSW 17:09:28 77° WNW 17:15:02 10° N
Aureole 2 Rocket 3.2 17:07:36 10° SSE 17:10:11 26° ESE 17:10:57 23° E
Cosmos 1606 Rocket 4.1 17:08:06 10° NNW 17:12:28 63° W 17:16:49 10° S
USA 229 DEB 4.2 17:06:17 10° NW 17:13:06 46° NNE 17:19:08 15° E
Cosmos 1300 4.0 17:09:29 10° NNW 17:13:08 44° W 17:16:46 10° SSW
USA 229 4.2 17:06:23 10° NW 17:13:11 46° NNE 17:19:10 15° E
H-2A R/B 2.3 17:08:48 10° NNE 17:13:18 77° WNW 17:17:40 10° SSW
Cosmos 1689 Rocket 4.4 17:17:53 11° SE 17:17:53 11° SE 17:18:08 10° SE
YAOGAN 1 2.9 17:13:07 10° SE 17:17:10 40° ENE 17:21:14 10° N
Cosmos 1892 Rocket 3.4 17:13:40 10° S 17:17:58 68° E 17:22:17 10° NNE
NOSS 3-4 (A) 4.4 17:12:35 10° W 17:18:17 41° NNW 17:23:48 13° NE
NOSS 3-4 (C) 4.4 17:12:44 10° W 17:18:26 41° NNW 17:23:58 13° NE
COSMOS 2406 4.1 17:14:26 10° NNW 17:19:27 29° NE 17:22:13 20° E
Cosmos 2228 4.1 17:15:53 10° NNW 17:19:59 47° W 17:24:06 10° SSW
ARGOS 3.7 17:15:10 10° SE 17:20:00 36° ENE 17:24:52 10° N
ERS-2 2.8 17:20:31 23° NE 17:22:00 32° E 17:25:17 10° SSE
Aureole 1 4.1 17:20:16 10° NNW 17:23:20 54° ENE 17:26:18 10° SE
CZ-2C R/B 4.0 17:26:41 19° E 17:26:41 19° E 17:29:59 10° SE
Cosmos 1092 Rocket 4.5 17:21:31 10° SSE 17:27:02 36° E 17:32:33 10° NNE
Cosmos 1812 Rocket 4.2 17:23:56 10° N 17:27:56 32° ENE 17:31:52 10° SE
CZ-4B R/B 1.2 17:24:43 11° NNE 17:28:01 74° ESE 17:31:18 10° S
NOSS 3-1 (A) 4.2 17:21:57 10° NW 17:28:42 49° NNE 17:34:20 19° E
BREEZE-M DEB (TANK) 1.9 17:27:40 10° W 17:29:56 58° S 17:30:28 41° SE
SKYMED 2 3.5 17:26:17 10° NNE 17:30:39 68° ESE 17:34:57 10° S
IRS-1C Rocket 4.0 17:25:31 10° SSE 17:30:46 83° ENE 17:36:04 10° NNW
SJ 16-02 1.7 17:28:23 10° S 17:32:32 42° ESE 17:34:30 26° NE
CSL-04 Debris 4.4 17:27:51 10° SE 17:32:58 45° ENE 17:38:04 10° N
SeaSat 1 4.4 17:31:57 10° NNE 17:35:45 23° NW 17:39:31 10° W
ATLAS 2AS CENTAUR R/B 3.7 17:28:19 10° WSW 17:35:57 48° NNW 17:42:09 15° NE
Cosmos 1833 Rocket 3.5 17:32:21 10° NNW 17:37:21 31° NE 17:38:57 27° ENE
Cosmos 158 Rocket 3.9 17:32:19 10° NNW 17:37:41 79° ENE 17:43:05 10° SSE
Meteor 1-24 Rocket 4.2 17:34:20 10° SSW 17:39:33 56° WNW 17:44:47 10° N
Cosmos 923 Rocket 3.9 17:34:38 10° NNW 17:40:01 76° ENE 17:45:21 10° SSE
Cosmos 2082 Rocket 3.4 17:36:46 10° NNW 17:41:20 24° NE 17:42:06 23° NE
Cosmos 1844 4.0 17:36:03 10° S 17:41:25 45° ESE 17:44:19 25° NE
Nadezhda 4 Rocket 3.9 17:37:00 10° S 17:43:12 71° E 17:49:22 10° NNE
Cosmos 1939 Rocket 4.2 17:40:02 10° S 17:43:58 43° W 17:47:53 10° NNW
Cosmos 2058 Rocket 3.7 17:41:47 10° NNW 17:46:13 58° W 17:50:37 10° S
Cosmos 1680 Rocket 3.4 17:41:47 10° NNW 17:47:02 67° ENE 17:52:14 10° SE
H-2A R/B 1.9 17:42:05 10° SSE 17:47:04 72° ENE 17:52:13 10° N
Cosmos 1898 Rocket 4.3 17:44:27 10° SSE 17:48:39 29° ESE 17:48:39 29° ESE
APEX 4.5 17:42:19 10° SSW 17:49:17 79° ESE 17:53:51 19° NE
CZ-4C R/B 3.4 17:44:37 10° W 17:49:43 36° NNW 17:53:55 18° NE
CZ-2C R/B 3.5 17:45:28 10° S 17:50:47 70° WSW 17:56:27 10° NNW
PSLV R/B 4.0 17:49:10 26° NNE 17:51:25 59° ESE 17:55:35 10° S
COSMOS 2455 2.8 17:48:20 10° SW 17:54:23 90° W 17:58:25 23° NE
Meteor 2-13 Rocket 4.3 17:48:19 10° S 17:54:26 80° E 18:00:37 10° NNE
MOS 1 Rocket 3.0 17:51:19 10° NNE 17:55:41 89° WNW 17:59:57 10° SSW
Cosmos 2227 Rocket 4.5 17:53:40 10° WNW 17:56:50 15° NNW 18:00:00 10° N
SJ-11-01 4.1 17:52:39 10° SSE 17:57:20 80° ENE 18:02:03 10° NNW
CZ-4 R/B 1.6 17:54:10 10° S 17:58:15 73° WSW 18:02:18 10° NNW
USA 234 3.4 17:55:48 31° E 17:59:02 62° NNE 18:05:30 10° WNW
Cosmos 1844 Rocket 2.6 17:54:29 10° SSW 18:00:07 73° ESE 18:03:17 27° NE
Iridium 4 Rocket 3.6 17:56:27 10° N 18:02:09 62° E 18:07:25 10° SSE
Cosmos 1818 3.5 17:56:56 10° SSW 18:02:19 68° SE 18:04:19 39° ENE
Okean 1-7 Rocket 4.0 17:59:10 10° SSW 18:03:42 67° WNW 18:08:17 10° N
CREW DRAGON DEMO-1 DEB 4.0 18:02:41 10° W 18:05:17 35° SSW 18:05:17 35° SSW
SAR-Lupe-4 3.4 18:06:12 80° ESE 18:06:12 80° ESE 18:09:47 10° SSW
Cosmos 1626 Rocket 3.4 18:05:31 10° S 18:09:54 82° E 18:12:05 30° NNE
X-37B 2.8 18:08:10 10° SW 18:09:46 18° S 18:09:46 18° S
Meteor 1-21 Rocket 4.1 18:08:13 10° S 18:13:45 89° E 18:19:22 10° NNE
Cosmos 1553 Rocket 4.1 18:09:16 10° N 18:15:34 52° ENE 18:18:15 32° SE
SAR-Lupe-1 4.1 18:17:08 73° WSW 18:17:08 73° WSW 18:20:27 10° SSW
Cosmos 44 4.0 18:13:48 10° S 18:17:27 39° SSE 18:17:27 39° SSE
COSMO-SKYMED 1 3.7 18:14:33 10° N 18:18:42 43° WNW 18:22:49 10° SW
Cosmos 2026 Rocket 3.8 18:14:00 10° S 18:20:02 65° E 18:26:11 10° NNE
CSL-04 Rocket 3.6 18:17:31 10° SSE 18:22:56 85° WSW 18:28:29 10° NNW
Cosmos 2112 Rocket 4.1 18:19:34 10° NNW 18:24:50 75° WSW 18:28:48 17° SSE
ATLAS 5 CENTAUR R/B 3.1 18:24:09 10° W 18:27:59 30° NNW 18:29:11 26° N
Lacrosse 5 3.4 18:26:10 10° WNW 18:30:36 32° SW 18:34:00 15° S
ISS -1.8 18:30:43 10° SW 18:32:25 26° SW 18:32:25 26° SW
SL-08 RB Rocket 3.6 18:36:36 82° WSW 18:36:37 82° WSW 18:41:08 10° NNW
Okean-O 4.2 18:33:28 10° SSW 18:37:33 36° W 18:41:40 10° NNW
S3M 4.4 18:31:57 10° N 18:36:31 44° NNE 18:36:31 44° NNE
Meteor 2-15 4.3 18:32:38 10° N 18:38:51 86° E 18:45:02 10° S
Meteor 1-27 4.3 18:36:11 10° N 18:40:54 57° NNE 18:40:54 57° NNE
MetOp-A 4.3 18:43:19 58° NNE 18:43:19 58° NNE 18:47:44 10° NNW
Cosmos 2344 4.2 18:34:02 10° NW 18:43:04 89° SW 18:51:01 26° SE
Helios 1A Rocket 4.4 18:40:27 10° SSW 18:44:17 36° W 18:48:09 10° NNW
NOSS 3-1 (C) 4.2 18:39:40 10° NW 18:47:00 71° SW 18:51:58 27° SSE
Cosmos 1602 Rocket 4.2 18:46:14 10° SSW 18:50:09 53° W 18:50:09 53° W
Cosmos 2263 Rocket 4.2 18:46:53 10° W 18:51:10 21° NW 18:54:29 13° N
USA 281 3.8 18:52:48 39° NNE 18:52:48 39° NNE 18:57:46 10° NNW
ERS-2 4.2 18:55:04 25° NW 18:55:26 25° WNW 18:58:27 10° WSW
Cosmos 990 Rocket 4.2 18:53:29 10° SSW 18:58:08 67° WSW 18:58:08 67° WSW
ARGOS 4.2 18:55:07 10° S 19:00:12 43° W 19:05:20 10° NNW
COSMOS 2406 3.3 18:58:33 10° NNW 19:04:20 74° WSW 19:04:20 74° WSW
USA 229 DEB 4.0 18:57:20 10° NW 19:04:34 72° SW 19:06:38 50° SSE
USA 229 4.0 18:57:26 10° NW 19:04:39 73° SW 19:06:40 51° SSE
USA 267 4.1 19:07:16 36° S 19:07:16 36° S 19:11:32 10° SSW
CZ-2C R/B 3.2 19:08:10 54° SW 19:08:10 54° SW 19:12:29 10° SSW
SJ 16-02 3.1 19:07:26 10° WSW 19:11:15 28° NW 19:11:33 28° NW
CZ-3B R/B 4.0 19:16:36 10° W 19:19:55 34° SSW 19:20:08 33° SSW
NOSS 3-1 (A) 4.2 19:12:50 10° NW 19:20:10 70° SW 19:21:50 57° S
Cosmos 1833 Rocket 3.3 19:16:08 10° NW 19:20:41 53° WNW 19:20:41 53° WNW
Cosmos 2082 Rocket 3.3 19:20:31 10° NNW 19:23:58 38° NNW 19:23:58 38° NNW
ATLAS 2AS CENTAUR R/B 4.0 19:21:47 10° WNW 19:28:44 33° N 19:29:35 32° N
CZ-4C R/B 3.9 19:34:41 10° NW 19:39:07 28° N 19:39:07 28° N
COSMOS 2455 4.3 19:35:51 10° W 19:41:05 30° NNW 19:41:35 29° NNW
USA 234 3.6 19:43:09 62° W 19:43:09 62° W 19:48:35 10° WNW
Cosmos 1844 Rocket 4.3 19:39:42 10° W 19:44:34 28° NW 19:44:59 28° NW
